CZ-4B DEB, 40533

Orbit data source: Space-Track

CZ-4B DEB, 40533 is space debris in LEO originally from a launch on Fri, 25 Oct 2013 UTC launched from the Jiuquan Satellite Launch Center, China (JSC). Debris objects in space refer to the collection of defunct objects orbiting the Earth. Examples of debris include non-operational satellites, rocket bodies, and fragments generated from explosions, collisions, or faulty payload assembly.

Loading next visibility...
Identifier
40533, 2013-057F
Orbit
LEO
Country
Flag of CNCN / PRC
Related business
Manufacturer
SAST
Mission
Spacecraft
Bus & Motor
Unknown
Mass
Unknown
Launch date (UTC)
2013-10-25 (12 years ago)
Launch vehicle
Unknown
Launch site
Jiuquan Satellite Launch Center, China (JSC)
Object type
Payload
Rocket body
Debris
Shape & HBR
Unknown shape, 0.1 m
Radar Cross Section
Small (<0.1 m²)

Expand to show TLE details & history
Last TLE update: 9 hours ago

TLE from 9 hours ago
0 CZ-4B DEB
1 40533U 13057F   26105.49838517  .00001332  00000-0  21813-3 0  9997
2 40533  74.9150 268.5388 0161244 359.3150   0.7774 14.63327255584287
Epoch: 2026-04-15T11:57Z
TLE epoch observation values (Epoch: 2026-04-15T11:57:40.478Z)
Latitude
-0.00006°
Longitude
-114.53929°
Altitude
571.288 km
Speed
7.636 km/s
True Right ascension
17h 54m 09s
True Declination
0° 00' 00"
Sunlit
Object was in full shadow at epoch
Visualization orbit readout
Latitude
Unknown
Longitude
Unknown
Altitude
Unknown
Speed
Unknown
Apparent Right ascension
Unknown
Apparent Declination
Unknown
Sunlit
N/A
Visualization observer readout
Local Sidereal Time
03:26:12
Azimuth
Unknown
Elevation
Unknown
Doppler factor
Unknown
Orbital elements
Apogee altitude
793.778 km
Perigee altitude
566.162 km
Semi-major axis
7,058.107 km
Eccentricity
0.01612
Inclination
74.915°
RAAN
268.5388°
Arg. of periapsis
359.315°
True anomaly
0.80298°
Mean anomaly
0.7774°
Eccentric anomaly
0.79014°
Mean motion
3.66025 °/min
Orbital period
98.35 mins
BSTAR
0.00021813
Loading maneuver chart data...
Computing Atmospheric mass density...
Loading historical data...
Loading historical data...
Loading historical data...
Loading historical data...
Loading historical data...
Loading historical data...
Loading historical data...
Other satellites on launch #57 in the year 2013 (2013-10-25 UTC)

Documentation

Showing up to 5 results
|